Location: *
(28.3744°N, 81.5492°W)
Time: 14:16:24
(UTC+00:00)

ATLAS 3B R/B - Pass Details

Date: 15 June 2025
Orbit: 935 x 1258 km, 63.8° (Epoch: 15 July)

Event Time Altitude Azimuth Distance (km) Brightness Sun altitude
Rises 08:09:13 0° 325° (NW) 4,190 6.0 -25.2°
Reaches altitude 10° 08:12:08 10° 321° (NW) 3,199 5.3 -24.7°
Maximum altitude 08:19:31 51° 248° (WSW) 1,467 3.0 -23.6°
Enters shadow 08:21:27 41° 207° (SSW) 1,629 3.2 -23.3°
